Location: Unspecified
(29.9680°N, 0.0000°E)
Time: 00:24:15
(UTC+00:00)

Tiros 1 - All Passes

Search period start: 27 June 2019 00:00
Search period end: 07 July 2019 00:00
Orbit: 631 x 664 km, 48.4° (Epoch: 26 June)

Date Brightness Start Highest point End Pass type
(mag) Time Alt. Az. Time Alt. Az. Time Alt. Az.
27 Jun - 01:40:21 10° N 01:41:08 10° NNE 01:41:55 10° NNE visible
27 Jun - 03:20:11 10° NNW 03:24:27 35° NE 03:28:40 10° E visible
27 Jun - 05:02:26 10° WNW 05:06:33 32° SW 05:10:39 10° SSE daylight
27 Jun - 19:10:21 10° SSW 19:14:33 31° SE 19:18:43 10° ENE daylight
27 Jun - 20:52:15 10° WSW 20:56:40 37° NW 21:01:02 10° NNE visible
27 Jun - 22:38:38 10° NNW 22:39:55 11° NNW 22:41:11 10° N visible
28 Jun - 02:04:51 10° NNW 02:07:55 17° NNE 02:10:58 10° ENE visible
28 Jun - 03:46:00 10° NW 03:50:38 84° NE 03:55:15 10° SE visible
28 Jun - 05:30:43 10° WSW 05:32:18 12° SW 05:33:54 10° SSW daylight
28 Jun - 17:58:34 10° SE 17:58:50 10° SE 17:59:06 10° ESE daylight
28 Jun - 19:35:42 10° SW 19:40:29 84° SE 19:45:14 10° NE visible
28 Jun - 21:19:42 10° WNW 21:23:07 19° NNW 21:26:31 10° NNE visible
29 Jun - 02:30:15 10° NNW 02:34:26 32° NE 02:38:34 10° E visible
29 Jun - 04:12:22 10° WNW 04:16:36 36° SW 04:20:48 10° SSE visible
29 Jun - 18:20:30 10° S 18:24:34 28° SE 18:28:38 10° ENE daylight
29 Jun - 20:02:08 10° WSW 20:06:38 41° NW 20:11:06 10° NE visible
29 Jun - 21:48:13 10° NW 21:49:51 12° NNW 21:51:27 10° N visible
30 Jun - 01:14:57 10° NNW 01:17:52 16° NNE 01:20:46 10° ENE visible
30 Jun - 02:56:01 10° NW 03:00:39 76° NE 03:05:15 10° SE visible
30 Jun - 04:40:13 10° W 04:42:22 13° SW 04:44:30 10° SSW daylight
30 Jun - 18:45:43 10° SW 18:50:29 76° SE 18:55:14 10° NE daylight
30 Jun - 20:29:30 10° WNW 20:33:04 21° NNW 20:36:37 10° NNE visible
01 Jul - 01:40:18 10° NNW 01:44:25 30° NNE 01:48:29 10° E visible
01 Jul - 03:22:18 10° WNW 03:26:39 40° SW 03:30:56 10° SSE visible
01 Jul - 17:30:40 10° S 17:34:36 26° SE 17:38:32 10° ENE daylight
01 Jul - 19:12:03 10° WSW 19:16:37 44° NW 19:21:10 10° NE daylight
01 Jul - 20:57:52 10° NW 20:59:46 12° NNW 21:01:40 10° N visible
02 Jul - 00:25:03 10° NNW 00:27:49 15° NNE 00:30:34 10° ENE visible
02 Jul - 02:06:02 10° NW 02:10:41 69° NE 02:15:15 10° SE visible
02 Jul - 03:49:52 10° W 03:52:25 15° SW 03:54:58 10° SSW visible
02 Jul - 17:55:44 10° SW 18:00:29 69° SE 18:05:14 10° NE daylight
02 Jul - 19:39:18 10° W 19:43:00 22° NNW 19:46:43 10° NNE visible
03 Jul - 00:50:22 10° NNW 00:54:24 28° NNE 00:58:23 10° E visible
03 Jul - 02:32:15 10° WNW 02:36:41 44° SW 02:41:03 10° SSE night (unlit)
03 Jul - 16:40:51 10° S 16:44:38 23° SE 16:48:25 10° ENE daylight
03 Jul - 18:21:58 10° WSW 18:26:36 48° NW 18:31:13 10° NE daylight
03 Jul - 20:07:32 10° NW 20:09:42 13° NNW 20:11:51 10° N visible
03 Jul - 23:35:09 10° NNW 23:37:46 15° NNE 23:40:22 10° ENE visible
04 Jul - 01:16:03 10° NW 01:20:41 63° NE 01:25:15 10° ESE visible
04 Jul - 02:59:35 10° W 03:02:29 16° SW 03:05:21 10° SSW night (unlit)
04 Jul - 17:05:46 10° SW 17:10:30 62° SE 17:15:13 10° NE daylight
04 Jul - 18:49:08 10° W 18:52:58 23° NNW 18:56:48 10° NNE daylight
05 Jul - 00:00:25 10° NNW 00:04:22 26° NNE 00:08:16 10° E visible
05 Jul - 01:42:13 10° WNW 01:46:43 49° SW 01:51:09 10° SSE night (unlit)
05 Jul - 15:51:04 10° S 15:54:40 21° SE 15:58:15 10° E daylight
05 Jul - 17:31:54 10° WSW 17:36:35 53° NW 17:41:15 10° NE daylight
05 Jul - 19:17:13 10° NW 19:19:37 14° NNW 19:22:00 10° N daylight
05 Jul - 22:45:15 10° N 22:47:42 14° NNE 22:50:08 10° NE visible
06 Jul - 00:26:04 10° NW 00:30:41 57° NE 00:35:15 10° ESE visible
06 Jul - 02:09:21 10° W 02:12:31 18° SW 02:15:41 10° S night (unlit)
06 Jul - 16:15:49 10° SSW 16:20:30 56° SE 16:25:12 10° ENE daylight
06 Jul - 17:58:57 10° W 18:02:56 25° NNW 18:06:53 10° NNE daylight
06 Jul - 23:10:29 10° NNW 23:14:20 24° NNE 23:18:09 10° E visible
